Location: Wyoming Infrared Observatory
(41.0971°N, 105.9765°W)
Time: 14:41:30
(UTC-06:00)

Daily predictions for brighter satellites

Satellite Brightness Start Highest point End
(mag) Time Altitude Azimuth Time Altitude Azimuth Time Altitude Azimuth
Cosmos 2184 Rocket 4.3 20:46:27 10° N 20:52:39 52° ENE 20:58:43 10° SSE
Tiangong 2 1.1 20:52:20 10° WSW 20:55:30 65° SSE 20:58:38 10° ENE
Cosmos 1441 Rocket 3.9 20:56:12 10° SSE 20:59:33 32° E 21:02:55 10° NNE
Cosmos 923 Rocket 4.1 20:56:51 10° SSW 21:02:11 89° ESE 21:07:31 10° NNE
Meteor 1-19 Rocket 4.3 20:56:43 10° S 21:02:29 69° E 21:08:10 10° NNE
Cosmos 1455 Rocket 3.9 21:00:58 10° NNW 21:05:13 53° W 21:09:25 10° S
Resurs 01 Rocket 3.1 21:01:26 10° SSW 21:05:33 38° W 21:09:43 10° NNW
ERS-1 Rocket 3.7 21:02:04 10° SE 21:06:37 36° ENE 21:11:12 10° N
Meteor 1-29 3.0 21:05:18 10° NNE 21:08:38 56° ESE 21:11:56 10° S
SPOT 5 4.3 21:09:45 10° ESE 21:12:50 19° ENE 21:15:56 10° NNE
CENTAUR R/B 3.4 21:07:38 10° NW 21:15:33 69° WSW 21:23:54 10° SSE
Nadezhda 1 Rocket 4.1 21:15:10 10° S 21:21:27 67° E 21:27:48 10° NNE
COSMOS 2406 3.7 21:18:35 10° SSW 21:24:17 69° WNW 21:29:59 10° NNE
CZ-4B DEB 2.8 21:21:23 10° S 21:24:21 71° W 21:27:20 10° NNW
Cosmos 1743 3.4 21:20:50 10° NNW 21:24:39 55° W 21:28:28 10° S
Cosmos 2082 Rocket 3.5 21:23:35 12° SE 21:26:56 19° E 21:30:51 10° NE
Cosmos 1346 4.2 21:26:29 10° SSW 21:29:06 41° WNW 21:31:46 10° N
ISS -3.1 21:27:37 10° WSW 21:30:52 59° NNW 21:34:08 10° NE
MOS 1-B Rocket 4.4 21:26:28 12° SE 21:31:35 51° ENE 21:37:51 10° N
CRYOSAT 2 4.4 21:28:22 10° SSE 21:33:10 67° E 21:37:59 10° N
Cosmos 2112 Rocket 4.3 21:29:32 10° SSW 21:34:45 72° WNW 21:39:57 10° NNE
Cosmos 1238 Rocket 4.1 21:28:34 10° S 21:35:19 81° E 21:41:47 10° N
Cosmos 2154 Rocket 4.1 21:30:30 10° N 21:36:49 62° E 21:42:32 13° SSE
ASTEX 1 3.4 21:35:02 10° S 21:39:56 85° E 21:44:51 10° N
SL-27 R/B 3.3 21:37:09 10° SSW 21:40:43 54° WNW 21:44:19 10° N
OAO 2 Rocket 3.8 21:36:14 10° WSW 21:40:50 40° S 21:44:05 18° SE
Helios 1A 4.3 21:37:14 10° SSW 21:41:10 38° W 21:45:07 10° NNW
Cosmos 1624 Rocket 4.2 21:36:48 10° NNW 21:42:02 60° ENE 21:45:57 18° SE
H-2A R/B 3.1 21:40:27 16° ESE 21:43:29 28° ENE 21:47:45 10° N
YAOGAN 6 2.8 21:41:01 11° S 21:44:17 64° W 21:47:46 10° NNW
Cosmos 2228 4.3 21:40:47 10° NNE 21:44:23 25° ENE 21:46:19 18° ESE
Cosmos 1939 Rocket 4.0 21:41:19 10° SSW 21:44:56 39° W 21:48:35 10° NNW
Aureole 3 Rocket 4.3 21:38:48 10° SSW 21:44:57 56° W 21:49:21 10° N
Cosmos 2369 4.3 21:41:23 10° NNW 21:46:52 44° ENE 21:50:41 19° SE
Cosmos 921 Rocket 3.8 21:42:41 10° N 21:46:53 38° ENE 21:49:22 21° SE
Cosmos 1666 3.8 21:43:30 10° NNW 21:47:04 43° W 21:50:37 10° SSW
Cosmos 1697 Rocket 4.2 21:42:48 10° N 21:47:17 24° NE 21:50:56 13° E
Cosmos 967 Rocket 4.4 21:46:07 10° SSW 21:52:18 67° ESE 21:58:32 10° NE
SL-08 RB Rocket 4.3 21:50:33 21° SE 21:53:06 41° ENE 21:57:19 10° N
Okean 1-7 Rocket 4.0 21:50:28 10° SSW 21:54:53 66° W 21:59:23 10° N
Cosmos 1892 Rocket 3.8 21:52:30 18° SSE 21:55:35 52° E 21:59:53 10° NNE
Cosmos 1437 Rocket 2.6 21:54:33 10° N 21:58:24 84° E 22:00:44 23° SSE
Cosmos 2056 Rocket 3.4 21:56:11 10° NNW 22:01:22 83° ENE 22:04:38 23° SSE
Cosmos 1833 Rocket 3.2 22:00:38 20° SSE 22:03:52 37° ESE 22:08:59 10° NE
PSLV R/B 3.7 22:01:52 10° W 22:04:49 39° SSW 22:05:22 36° S
Cosmos 1606 Rocket 3.5 22:03:27 10° N 22:07:47 88° W 22:10:23 24° S
MetOp-A 4.2 22:04:46 18° S 22:08:49 80° WSW 22:14:13 10° NNW
Cosmos 2341 Rocket 4.0 22:03:23 10° N 22:09:46 81° E 22:14:23 20° S
NOSS 8 (E) 4.3 22:07:29 10° SSW 22:10:54 70° ESE 22:14:34 10° NE
Cosmos 1726 Rocket 3.5 22:13:09 10° N 22:17:29 83° W 22:19:45 28° S
Cosmos 1515 3.7 22:15:55 22° SSW 22:18:18 78° W 22:22:07 10° N
Cosmos 1025 Rocket 4.3 22:14:39 10° SSW 22:18:38 38° WNW 22:22:39 10° N
Cosmos 1066 Rocket 4.4 22:16:09 26° SSE 22:19:00 51° E 22:24:25 10° NNE
COSMOS 2487 2.3 22:17:33 32° S 22:19:04 74° ESE 22:22:39 10° NNE
USA 245 2.1 22:19:45 76° SW 22:19:48 77° WSW 22:22:09 10° NNW
Cosmos 2218 Rocket 4.3 22:15:06 10° N 22:21:05 51° ENE 22:24:05 28° SE
CARTOSAT-1 4.4 22:27:22 30° ESE 22:28:28 36° ENE 22:32:26 10° N
Cosmos 839 Rocket 4.4 22:25:11 10° NNW 22:31:49 79° WSW 22:36:25 28° SSE
Cosmos 2058 Rocket 3.1 22:27:51 10° N 22:32:17 79° W 22:34:08 34° S
Tiangong 2 1.5 22:29:08 10° W 22:32:17 61° N 22:33:11 40° ENE
Landsat 7 3.9 22:31:20 37° SE 22:33:02 61° ENE 22:37:44 10° N
Cosmos 1452 Rocket 3.6 22:28:05 10° NNW 22:33:21 66° ENE 22:35:24 36° SE
Cosmos 1766 4.4 22:31:24 10° NNE 22:34:49 28° ENE 22:35:01 28° E
SPOT 1/Viking Rocket 3.5 22:32:18 32° SSE 22:34:49 86° WSW 22:40:00 10° NNW
Cosmos 1980 Rocket 3.2 22:30:39 10° N 22:35:46 33° ENE 22:38:08 24° E
Cosmos 2181 Rocket 4.2 22:34:13 14° SSW 22:39:50 71° W 22:46:08 10° N
Lacrosse 5 rocket 4.3 22:37:26 10° NNW 22:39:55 14° NNE 22:42:23 10° NE
ARGOS 3.7 22:40:03 23° SSW 22:43:15 52° W 22:48:33 10° NNW
Cosmos 2322 Rocket 4.3 22:42:15 10° N 22:45:50 17° NE 22:48:59 11° E
Terra 2.0 22:46:49 44° SE 22:48:04 60° ENE 22:52:46 10° N
SPOT 5 3.7 22:48:43 24° SSW 22:50:38 37° W 22:54:42 10° NNW
H-2A R/B 2.2 22:52:19 51° SE 22:53:14 65° ENE 22:57:44 10° N
USA 267 4.1 22:48:21 10° ENE 22:52:59 28° ESE 22:52:59 28° ESE
Cosmos 1812 Rocket 3.8 22:50:46 10° N 22:55:10 53° E 22:55:42 50° ESE
IGS 5A 3.4 22:54:43 59° ESE 22:55:14 66° ENE 22:59:22 10° N
Cosmos 468 4.4 22:57:42 37° SSW 22:59:50 84° ESE 23:05:09 10° NNE
Cosmos 864 Rocket 4.4 22:56:31 10° N 23:02:51 90° E 23:05:17 40° S
Cosmos 1626 Rocket 3.5 23:03:25 55° SSW 23:04:18 78° W 23:08:38 10° N
ATLAS CENTAUR R/B 3.8 23:04:24 10° NNE 23:05:41 11° NE 23:06:55 10° ENE
Cosmos 1805 4.3 23:02:57 10° N 23:06:12 34° ENE 23:06:12 34° ENE
Meteor 2-21 4.4 23:00:38 10° N 23:06:41 79° W 23:09:01 40° S
Spot 4 4.2 23:06:02 44° E 23:06:48 49° ENE 23:11:26 10° N
ISS -0.7 23:05:40 10° WNW 23:07:54 17° NNW 23:10:08 10° NNE
Cosmos 2082 Rocket 2.7 23:05:18 12° SW 23:10:30 58° WNW 23:16:06 10° NNE
Meteor 2-21 Rocket 4.3 23:04:42 10° N 23:10:47 90° W 23:12:47 45° S
CZ-2C R/B 4.5 23:08:43 10° NE 23:11:50 16° E 23:11:50 16° E
SL-19 R/B 4.0 23:09:27 10° NNE 23:14:49 90° ESE 23:16:21 48° SSW
Meteor 1-22 Rocket 4.1 23:10:12 10° NNW 23:15:31 74° W 23:16:58 49° SSW
Cosmos 1825 Rocket 4.2 23:18:32 42° ENE 23:18:32 42° ENE 23:22:07 10° NNE
H-2A R/B 3.2 23:21:04 26° SW 23:22:47 33° W 23:27:19 10° NNW
Meteor 1-4 Rocket 3.9 23:19:55 10° NNW 23:23:05 31° W 23:23:05 31° W
USA 229 DEB 3.8 23:16:38 10° NNW 23:23:49 75° NE 23:26:31 42° SE
USA 229 3.8 23:16:44 10° NNW 23:23:55 74° NE 23:26:38 42° SE
Cosmos 2366 rocket 4.4 23:19:54 10° NNW 23:25:53 56° W 23:28:15 35° SSW
CZ-4C R/B 3.9 23:27:51 44° NNE 23:27:51 44° NNE 23:30:37 10° N
Cosmos 158 Rocket 4.0 23:25:50 53° SSW 23:27:10 86° WNW 23:32:35 10° NNE
Cosmos 1697 Rocket 3.0 23:26:07 10° NNW 23:31:33 53° WSW 23:32:41 45° SW
Iridium 2 4.1 23:28:30 10° N 23:31:46 62° NNW 23:31:46 62° NNW
Cosmos 2360 4.1 23:27:02 10° NNW 23:32:47 78° ENE 23:33:49 60° SE
Cosmos 1842 3.6 23:34:20 65° NW 23:34:20 65° NW 23:37:52 10° N
CZ-4B R/B 3.4 23:30:45 10° NNE 23:35:52 86° WNW 23:36:44 63° SSW
SL-16 R/B 3.1 23:32:47 10° N 23:38:04 38° ENE 23:39:29 33° E
Cosmos 1271 Rocket 3.3 23:36:28 10° NNW 23:39:50 55° WNW 23:39:50 55° WNW
Cosmos 1833 Rocket 4.2 23:42:48 10° WSW 23:47:48 32° WNW 23:52:51 10° N
Cosmos-2242 4.1 23:44:50 10° N 23:48:14 34° ENE 23:48:14 34° ENE
Cosmos 389 Rocket 3.9 23:49:49 10° N 23:52:00 36° N 23:52:00 36° N
Cosmos 1733 4.5 23:49:56 10° N 23:52:35 36° NE 23:52:35 36° NE
Cosmos 1953 2.8 23:51:24 10° N 23:54:46 59° NNW 23:54:46 59° NNW
